User: anonymous   Login
Location: Unspecified
(0.0000°N, 0.0000°E)
Time: 00:21:01
(UTC+00:00)
Language:

USA 136 - Orbit

View from above orbital plane
View from above orbital plane
View from above satellite
View from above satellite

Ground track
Ground track

The orbit data is extracted from the following two-line orbital elements,

1 25034U 97068A   17074.76599485 0.00000000  00000-0  00000-0 0    09
2 25034  63.3688 229.5651 6332272 285.6111  16.4530  2.00598000    02
Epoch (UTC): 15 March 2017 18:23:01
Eccentricity: 0.6332272
inclination: 63.3688°
perigee height: 3362 km
apogee height: 36995 km
right ascension of ascending node: 229.5651°
argument of perigee: 285.6111°
revolutions per day: 2.00598000
mean anomaly at epoch: 16.4530°
orbit number at epoch: 0

The dashed part of the orbit path shows where the satellite is in the earth's shadow,  

DLR